Powrót do katalogu

STARLINK-4624

AktywnyŁącznośćSSO
NORAD 53684·PAYLOAD·🇺🇸 United States

Wystrzelony Aug 31, 2022 z Vandenberg Space Force Base

Loading…

Następne Przeloty (najbliższe 24 godziny)

TLE

ŚwieżeSource: CelesTrak SupGP

Epoka: Sep 14, 2026, 13:46 UTC

1 53684C 22105AN  26257.57409722  .00052100  00000+0  36172-2 0  2579
2 53684  97.2820 131.6800 0002439  78.8045 346.2629 15.05631129    11

Śledź STARLINK-4624 w czasie rzeczywistym z AllMySat

Download on the App Store